Syracuse, NY

11:40 AM EST on December 05, 2016 (GMT -0500)
Syracuse Hancock International

Weather History for KSYR - September, 2012

Change the Weather History Date:

Wednesday, September 26, 2012

  Actual Average Record
Temperature  
Mean Temperature 64 °F 58 °F  
Max Temperature 71 °F 68 °F 88 °F (1934)
Min Temperature 57 °F 48 °F 30 °F (1943)
Degree Days  
Heating Degree Days 1 8  
Month to date heating degree days 76 106  
Since 1 July heating degree days 77 132  
Cooling Degree Days 0 1  
Month to date cooling degree days 78 51  
Year to date cooling degree days 951 564  
Growing Degree Days 14 (Base 50)    
Moisture  
Dew Point 57 °F    
Average Humidity 77    
Maximum Humidity 87    
Minimum Humidity 66    
Precipitation  
Precipitation 0.12 in 0.13 in 2.46 in (1975)
Month to date precipitation 2.55 3.19  
Year to date precipitation 21.58 27.78  
Snow  
Snow 0.00 in 0.00 in T in (1989)
Month to date snowfall 0.0 0.0  
Since 1 July snowfall 0.0 0.0  
Since 1 September snowfall 0.0 0.0  
Snow Depth 0.00 in    
Sea Level Pressure  
Sea Level Pressure 29.98 in    
Wind  
Wind Speed 6 mph (SSW)    
Max Wind Speed 13 mph    
Max Gust Speed 17 mph    
Visibility 10 miles    
Events Rain    
T = Trace of Precipitation, MM = Missing Value Source: NWS Daily Summary

Daily Weather History Graph

Daily Weather History Graph

Search for Another Location

Airport or City:

Trip Planner

Search our weather history database for the weather conditions in past years. The results will help you decide how hot, cold, wet, or windy it might be!

Date:

Astronomy

Sep. 26, 2012 Rise Set
Actual Time 6:56 AM EDT 6:53 PM EDT
Civil Twilight 6:28 AM EDT 7:21 PM EDT
Nautical Twilight 5:55 AM EDT 7:55 PM EDT
Astronomical Twilight 5:21 AM EDT 8:28 PM EDT
Moon 4:55 PM EDT (9/26) 3:15 AM EDT (9/26)
Length of Visible Light 12h 53m
Length of Day
11h 57m
Waxing Gibbous, 88% of the Moon is Illuminated
Sep 26
Waxing Gibbous
Sep 29
Full
Oct 8
Last Quarter
Oct 15
New
Oct 21
First Quarter

Hourly Weather History & Observations

Time (EDT) Temp. Dew Point Humidity Pressure Visibility Wind Dir Wind Speed Gust Speed Precip Events Conditions
12:54 AM 57.9 °F 51.1 °F 78% 29.98 in 10.0 mi SE 8.1 mph - 0.02 in Rain Light Rain
1:54 AM 57.0 °F 52.0 °F 83% 29.98 in 8.0 mi ESE 4.6 mph - 0.02 in Rain Light Rain
2:54 AM 57.0 °F 53.1 °F 87% 29.96 in 10.0 mi Calm Calm - 0.04 in Rain Light Rain
3:54 AM 57.9 °F 54.0 °F 87% 29.96 in 3.0 mi South 4.6 mph - 0.02 in Rain Light Rain
4:54 AM 57.9 °F 55.0 °F 90% 29.95 in 10.0 mi Variable 3.5 mph - 0.04 in   Overcast
5:04 AM 59.0 °F 55.4 °F 88% 29.96 in 10.0 mi Calm Calm - N/A   Overcast
5:54 AM 59.0 °F 55.0 °F 87% 29.95 in 10.0 mi SSE 4.6 mph - N/A   Overcast
6:54 AM 60.1 °F 55.0 °F 83% 29.95 in 10.0 mi SSW 4.6 mph - N/A   Overcast
7:36 AM 60.8 °F 55.4 °F 82% 29.97 in 10.0 mi SSW 6.9 mph - N/A   Overcast
7:54 AM 61.0 °F 55.9 °F 83% 29.96 in 10.0 mi South 3.5 mph - N/A   Overcast
8:54 AM 62.1 °F 57.0 °F 84% 29.97 in 10.0 mi SE 5.8 mph - N/A   Overcast
9:35 AM 64.4 °F 57.2 °F 77% 29.99 in 10.0 mi South 5.8 mph - N/A   Overcast
9:54 AM 64.0 °F 57.0 °F 78% 29.98 in 10.0 mi SSW 5.8 mph - N/A   Overcast
10:02 AM 64.4 °F 57.2 °F 77% 29.99 in 10.0 mi South 4.6 mph - N/A   Overcast
10:54 AM 64.9 °F 57.0 °F 75% 29.98 in 10.0 mi SW 5.8 mph - N/A   Overcast
11:54 AM 66.9 °F 57.9 °F 73% 29.97 in 10.0 mi SSW 6.9 mph - N/A   Overcast
12:54 PM 69.1 °F 57.9 °F 68% 29.97 in 10.0 mi SSW 8.1 mph - N/A   Overcast
1:36 PM 69.8 °F 57.2 °F 64% 29.97 in 10.0 mi SSW 8.1 mph - N/A   Overcast
1:54 PM 69.1 °F 59.0 °F 70% 29.96 in 10.0 mi South 6.9 mph - N/A   Overcast
2:54 PM 69.1 °F 57.9 °F 68% 29.96 in 10.0 mi WSW 6.9 mph - N/A   Overcast
3:54 PM 69.1 °F 59.0 °F 70% 29.94 in 10.0 mi South 6.9 mph - N/A   Overcast
4:54 PM 69.1 °F 59.0 °F 70% 29.95 in 10.0 mi South 10.4 mph - N/A   Overcast
5:54 PM 68.0 °F 59.0 °F 73% 29.95 in 10.0 mi South 8.1 mph - N/A   Overcast
6:54 PM 66.9 °F 59.0 °F 76% 29.96 in 10.0 mi South 4.6 mph - N/A   Overcast
7:54 PM 66.9 °F 60.1 °F 79% 29.99 in 10.0 mi SW 6.9 mph - N/A   Overcast
8:54 PM 64.9 °F 61.0 °F 87% 30.00 in 10.0 mi SW 4.6 mph - 0.00 in Rain Light Rain
9:13 PM 64.4 °F 60.8 °F 88% 30.02 in 10.0 mi West 8.1 mph - 0.00 in   Mostly Cloudy
9:29 PM 64.4 °F 60.8 °F 88% 30.03 in 10.0 mi WNW 8.1 mph - 0.00 in   Overcast
9:54 PM 64.0 °F 59.0 °F 84% 30.03 in 9.0 mi WNW 10.4 mph - 0.00 in   Overcast
10:09 PM 64.4 °F 59.0 °F 83% 30.04 in 8.0 mi West 10.4 mph - 0.00 in Rain Light Rain
10:54 PM 63.0 °F 57.9 °F 84% 30.05 in 9.0 mi West 6.9 mph - 0.00 in   Overcast
11:27 PM 62.6 °F 55.4 °F 77% 30.07 in 10.0 mi WNW 9.2 mph - N/A   Overcast
11:54 PM 62.1 °F 53.1 °F 72% 30.07 in 10.0 mi West 6.9 mph - N/A   Overcast